FW3835 Weather Reports


Display with metric or nautical units.
time (UTC)temp
F
wind
direction
speed
MPH
gust
MPH
rain 1hr
in
rain 24hr
in
rain mn
in
humidity
%
barometer
mb
20260507193005 51 304 3.0 13.0 0.00 0.00 0.00 24 1008.9
20260507191506 52 271 3.0 13.0 0.00 0.00 0.00 23 1009.0
20260507190010 52 293 3.0 15.0 0.00 0.00 0.00 24 1009.1
20260507184511 51 303 7.0 16.0 0.00 0.00 0.00 25 1009.1
20260507183033 50 289 5.0 15.0 0.00 0.00 0.00 25 1009.2
20260507181504 52 271 1.0 14.0 0.00 0.00 0.00 25 1009.2
20260507180008 51 311 4.0 13.0 0.00 0.00 0.00 26 1009.5
20260507174512 52 30 2.0 8.0 0.00 0.00 0.00 25 1009.6
20260507173016 49 329 6.0 14.0 0.00 0.00 0.00 26 1009.7
20260507171527 48 259 4.0 17.0 0.00 0.00 0.00 29 1009.9
20260507170006 49 351 3.0 15.0 0.00 0.00 0.00 27 1009.9
20260507164509 48 312 6.0 12.0 0.00 0.00 0.00 28 1010.0
20260507163014 47 252 4.0 9.0 0.00 0.00 0.00 31 1010.1
20260507161518 47 309 4.0 10.0 0.00 0.00 0.00 37 1010.2
20260507160031 47 304 2.0 9.0 0.00 0.00 0.00 36 1010.2
20260507154506 46 261 2.0 7.0 0.00 0.00 0.00 36 1010.3
20260507153010 44 304 4.0 10.0 0.00 0.00 0.00 40 1010.2
20260507151515 43 323 3.0 10.0 0.00 0.00 0.00 41 1010.3
20260507150020 44 302 1.0 8.0 0.00 0.00 0.00 41 1010.3
20260507144521 43 328 1.0 5.0 0.00 0.00 0.00 41 1010.3
20260507143015 43 259 2.0 10.0 0.00 0.00 0.00 43 1010.3
20260507141512 41 238 1.0 6.0 0.00 0.00 0.00 43 1010.3
20260507140014 41 254 2.0 9.0 0.00 0.00 0.00 44 1010.3
20260507134522 40 216 2.0 6.0 0.00 0.00 0.00 47 1010.3
20260507133024 38 245 0.0 7.0 0.00 0.00 0.00 52 1010.3
20260507131510 36 268 1.0 6.0 0.00 0.00 0.00 51 1010.4
20260507130029 35 265 1.0 6.0 0.00 0.00 0.00 53 1010.4
20260507124519 33 273 1.0 3.0 0.00 0.00 0.00 57 1010.5
20260507123023 31 242 0.0 3.0 0.00 0.00 0.00 58 1010.6
20260507121524 29 242 0.0 1.0 0.00 0.00 0.00 58 1010.5
20260507120008 28 242 0.0 1.0 0.00 0.00 0.00 59 1010.4
20260507114521 28 242 0.0 0.0 0.00 0.00 0.00 59 1010.3
20260507113020 27 242 0.0 0.0 0.00 0.00 0.00 59 1010.3
20260507111523 27 242 0.0 0.0 0.00 0.00 0.00 58 1010.3
20260507110006 28 242 0.0 0.0 0.00 0.00 0.00 58 1010.3
20260507104512 28 242 0.0 0.0 0.00 0.00 0.00 58 1010.4
20260507103016 28 242 0.0 0.0 0.00 0.00 0.00 58 1010.4
20260507101520 28 242 0.0 0.0 0.00 0.00 0.00 58 1010.5
20260507100025 28 242 0.0 1.0 0.00 0.00 0.00 58 1010.5
20260507094509 28 242 0.0 1.0 0.00 0.00 0.00 58 1010.6
20260507093010 28 242 0.0 0.0 0.00 0.00 0.00 59 1010.6
20260507091522 28 242 0.0 0.0 0.00 0.00 0.00 58 1010.6
20260507090017 28 242 0.0 1.0 0.00 0.00 0.00 58 1010.7
20260507084526 28 242 0.0 2.0 0.00 0.00 0.00 59 1010.7
20260507083010 29 242 0.0 1.0 0.00 0.00 0.00 59 1010.7
20260507081514 29 242 0.0 1.0 0.00 0.00 0.00 59 1010.7
20260507080019 29 242 0.0 2.0 0.00 0.00 0.00 58 1010.6
20260507074525 29 242 0.0 1.0 0.00 0.00 0.00 58 1010.7
20260507073027 29 242 0.0 1.0 0.00 0.00 0.00 58 1010.8
20260507071516 29 241 0.0 3.0 0.00 0.00 0.00 59 1010.9
20260507070015 29 240 0.0 0.0 0.00 0.00 0.00 60 1011.0
20260507064528 28 239 0.0 2.0 0.00 0.00 0.00 61 1011.1
20260507063024 29 239 0.0 0.0 0.00 0.00 0.00 62 1011.3
20260507061524 29 239 0.0 3.0 0.00 0.00 0.00 62 1011.4
20260507060028 28 302 0.0 0.0 0.00 0.00 0.00 62 1011.4
20260507054512 28 302 0.0 0.0 0.00 0.00 0.00 64 1011.5
20260507053020 28 302 0.0 2.0 0.00 0.00 0.00 66 1011.6
20260507051522 28 302 0.0 1.0 0.00 0.00 0.00 65 1011.8
20260507050038 29 302 0.0 0.0 0.00 0.00 0.00 63 1011.9
20260507044528 29 302 0.0 1.0 0.00 0.00 0.00 61 1012.1
20260507043016 30 302 0.0 1.0 0.00 0.00 0.00 61 1012.2
20260507041526 31 302 0.0 0.0 0.00 0.00 0.00 61 1012.2
20260507040026 32 302 0.0 0.0 0.00 0.00 0.00 59 1012.4
20260507034529 33 302 0.0 1.0 0.00 0.00 0.00 55 1012.5
20260507033028 34 302 0.0 0.0 0.00 0.00 0.00 53 1012.6
20260507031514 34 302 0.0 0.0 0.00 0.00 0.00 52 1012.6
20260507030026 35 302 0.0 0.0 0.00 0.00 0.00 50 1012.6
20260507024527 37 302 0.0 1.0 0.00 0.00 0.00 49 1012.6
20260507023027 37 302 0.0 2.0 0.00 0.00 0.00 49 1012.8
20260507021526 37 302 0.0 3.0 0.00 0.00 0.00 49 1012.8
20260507020019 37 302 0.0 2.0 0.00 0.00 0.00 48 1012.8
20260507014506 38 302 0.0 2.0 0.00 0.00 0.00 48 1012.7
20260507013010 38 326 1.0 2.0 0.00 0.00 0.00 48 1012.7
20260507011508 39 271 0.0 3.0 0.00 0.00 0.00 46 1012.8
20260507010015 39 269 1.0 5.0 0.00 0.00 0.00 44 1012.8
20260507004520 39 279 2.0 8.0 0.00 0.00 0.00 43 1012.8
20260507003003 40 290 1.0 10.0 0.00 0.00 0.00 43 1012.8
20260507001508 40 252 1.0 4.0 0.00 0.00 0.00 44 1012.9
20260507000008 40 301 1.0 4.0 0.00 0.00 0.00 44 1013.0
20260506234517 40 282 1.0 4.0 0.00 0.00 0.00 44 1013.1
20260506233017 40 324 2.0 6.0 0.00 0.00 0.00 44 1013.2
20260506231523 40 331 2.0 7.0 0.00 0.00 0.00 42 1013.3
20260506230017 40 289 2.0 6.0 0.00 0.00 0.00 41 1013.3
20260506224512 41 298 1.0 7.0 0.00 0.00 0.00 43 1013.4
20260506223014 40 311 1.0 5.0 0.00 0.00 0.00 43 1013.3
20260506221521 40 298 2.0 7.0 0.00 0.00 0.00 43 1013.5
20260506220034 40 301 3.0 9.0 0.00 0.00 0.00 41 1013.6
20260506214507 40 283 2.0 11.0 0.00 0.00 0.00 41 1013.6
20260506213010 41 316 3.0 8.0 0.00 0.00 0.00 43 1013.6
20260506211515 40 287 2.0 9.0 0.00 0.00 0.00 43 1013.8
20260506210028 40 281 3.0 11.0 0.00 0.00 0.00 42 1013.8
20260506204528 40 306 1.0 10.0 0.00 0.00 0.00 44 1013.8
20260506203007 39 314 2.0 10.0 0.00 0.00 0.00 45 1014.1
20260506201526 39 232 4.0 10.0 0.00 0.00 0.00 45 1014.1
20260506200017 39 311 2.0 14.0 0.00 0.00 0.00 46 1014.1
20260506194528 38 294 2.0 12.0 0.00 0.00 0.00 46 1014.2